Assumption Island Airport

Jump to: basic info | weather | runways | comments

Related pages: nearby airports | nearby navaids | notams | map

Basic information (top)

Codes: FSAS
Location: lon -9.742220, lat 46.506802, elev 10 ft / 3 m msl
Status: small_airport

Weather (top)

Current conditions for Prince Said Ibrahim International Airport 219nm (406km) WSW (rec'd 2014/07/29 08:00Z):

FMCH 290800Z 19012KT 9999 FEW020TCU BKN029 27/23 Q1020 NOSIG

Airport forecast for Prince Said Ibrahim International Airport 219nm (406km) WSW (rec'd 2014/07/29 06:00Z):

TAF FMCH 290500Z 2906/3012 19015KT 9999 FEW020TCU BKN030 
      TEMPO 2910/2914 4000 SHRA 
      BECMG 2915/2917 09005KT 
      TEMPO 2922/3009 4000 SHRA

Runways (top)

13/31: 3,963 x 75 ft (1,208 x 23 m) — paved — not lighted

Latest comments (top)

No comments yet for Assumption Island Airport

More... (top)

See also NOTAMs and nearby airports and navaids, or visit the Assumption Island Airport page at the main OurAirports website..